Location: Tel Aviv
(32.0670°N, 34.7670°E)
Time: 10:41:00
(UTC+02:00)

A-11 Canister half - Visible Passes

Search period start: 28 January 2022 00:00
Search period end: 07 February 2022 00:00
Orbit: 1524 x 1684 km, 47.3° (Epoch: 27 January)

Date Brightness Start Highest point End Pass type
(mag) Time Alt. Az. Time Alt. Az. Time Alt. Az.
28 Jan 9.9 17:26:52 10° WNW 17:36:20 58° SW 17:46:05 10° SSE visible
28 Jan 11.6 19:37:05 10° WSW 19:40:08 12° WSW 19:43:13 10° SW visible
29 Jan 11.5 19:14:34 10° W 19:18:31 13° WSW 19:22:31 10° SSW visible
30 Jan 11.5 18:52:15 10° W 18:56:53 14° WSW 19:01:35 10° SSW visible
31 Jan 11.7 05:58:21 10° SSE 06:02:28 14° ESE 06:06:34 10° E visible
31 Jan 11.5 18:30:03 10° W 18:35:15 16° WSW 18:40:33 10° SSW visible
01 Feb 11.7 05:37:32 10° SE 05:40:52 12° ESE 05:44:12 10° E visible
01 Feb 11.5 18:07:57 10° W 18:13:38 17° SW 18:19:24 10° SSW visible
02 Feb 11.8 05:17:00 10° SE 05:19:16 11° ESE 05:21:32 10° ESE visible
02 Feb 11.5 17:45:55 10° W 17:51:59 18° SW 17:58:12 10° SSW visible
06 Feb 10.1 05:47:38 10° SSW 05:56:23 46° SE 06:05:04 10° ENE visible
